{"data":{"norad_id":62028,"epoch":"2026-09-19T20:25:23.828736Z","epoch_age_seconds":74181,"freshness":"FRESH","line1":"1 62028U 24214A   26262.85097024 -.00000025  00000+0  00000+0 0  9990","line2":"2 62028   0.0125 125.4837 0001384 244.2032   3.4642  1.00275338  6847","mean_motion":1.00275338,"eccentricity":0.0001384,"inclination_deg":0.0125,"raan_deg":125.4837,"arg_perigee_deg":244.2032,"mean_anomaly_deg":3.4642,"bstar":0,"rev_number":684,"period_min":1436.0460196105,"perigee_km":35779.763494667,"apogee_km":35791.434416779,"semimajor_km":42163.735955723,"source":"CELESTRAK","updated_at":"2026-09-20T09:00:35.339945Z"}}